Location: Krakow
(50.0830°N, 19.9170°E)
Time: 09:55:15
(UTC+02:00)

A-11 Canister half - Pass Details

Date: 29 May 2024
Orbit: 1515 x 1684 km, 47.2° (Epoch: 18 May)

Event Time Altitude Azimuth Distance (km) Brightness Sun altitude
Exits shadow 00:39:15 24° 191° (SSW) 2,816 9.8 -18.3°
Maximum altitude 00:44:01 39° 143° (SE) 2,208 9.4 -18.2°
Drops below altitude 10° 00:52:25 10° 80° (E) 3,715 11.2 -18.2°
Sets 00:55:41 0° 73° (ENE) 4,685 11.8 -18.1°
